Blackwell, OK

3:13 PM CDT on September 21, 2017 (GMT -0500)
Blackwell

Weather History for KBKN - July, 2013

Change the Weather History Date:

Sunday, July 28, 2013

  Actual Average (KPNC) Record (KPNC)
Temperature  
Mean Temperature 73 °F -  
Max Temperature 84 °F 95 °F 108 °F (2012)
Min Temperature 62 °F 70 °F 53 °F (2005)
Cooling Degree Days 8    
Growing Degree Days 23 (Base 50)    
Moisture  
Dew Point 63 °F    
Average Humidity 77    
Maximum Humidity 100    
Minimum Humidity 54    
Precipitation  
Precipitation 0.03 in - - ()
Sea Level Pressure  
Sea Level Pressure 29.99 in    
Wind  
Wind Speed 11 mph (East)    
Max Wind Speed 21 mph    
Max Gust Speed 29 mph    
Visibility 10 miles    
Events Rain , Thunderstorm    
Averages and records for this station are not official NWS values.
T = Trace of Precipitation, MM = Missing Value Source: NWS Daily Summary

Daily Weather History Graph

Daily Weather History Graph

Search for Another Location

Airport or City:

Trip Planner

Search our weather history database for the weather conditions in past years. The results will help you decide how hot, cold, wet, or windy it might be!

Date:

Astronomy

Jul. 28, 2013 Rise Set
Actual Time 6:32 AM CDT 8:39 PM CDT
Civil Twilight 6:03 AM CDT 9:07 PM CDT
Nautical Twilight 5:27 AM CDT 9:43 PM CDT
Astronomical Twilight 4:49 AM CDT 10:21 PM CDT
Moon No Moon Rise 1:03 PM CDT (7/28)
Length of Visible Light 15h 04m
Length of Day
14h 06m
Waning Gibbous, 60% of the Moon is Illuminated
Jul 28
Waning Gibbous
Jul 29
Last Quarter
Aug 6
New
Aug 14
First Quarter
Aug 20
Full

Hourly Weather History & Observations

Time (CDT) Temp. Heat Index Dew Point Humidity Pressure Visibility Wind Dir Wind Speed Gust Speed Precip Events Conditions
12:15 AM 66.2 °F - 62.6 °F 88% 29.99 in 10.0 mi East 4.6 mph - N/A   Mostly Cloudy
12:35 AM 66.2 °F - 62.6 °F 88% 29.99 in 10.0 mi East 5.8 mph - N/A Thunderstorm Mostly Cloudy
12:55 AM 66.2 °F - 62.6 °F 88% 30.01 in 10.0 mi NE 5.8 mph - N/A   Mostly Cloudy
1:15 AM 68.0 °F - 62.6 °F 83% 30.02 in 10.0 mi NE 5.8 mph - N/A   Overcast
1:35 AM 68.0 °F - 62.6 °F 83% 30.02 in 10.0 mi NNE 9.2 mph - N/A   Overcast
1:55 AM 68.0 °F - 60.8 °F 78% 30.04 in 10.0 mi NNE 15.0 mph 20.7 mph N/A Rain , Thunderstorm Light Rain
2:15 AM 66.2 °F - 62.6 °F 88% 30.06 in 10.0 mi North 13.8 mph 17.3 mph N/A Rain Light Rain
2:35 AM 66.2 °F - 60.8 °F 83% 30.04 in 9.0 mi North 12.7 mph - N/A Rain , Thunderstorm Light Rain
2:55 AM 64.4 °F - 62.6 °F 94% 30.02 in 7.0 mi ENE 12.7 mph - 0.02 in Rain , Thunderstorm Light Rain
3:15 AM 64.4 °F - 62.6 °F 94% 30.01 in 10.0 mi ENE 10.4 mph - N/A   Overcast
3:35 AM 64.4 °F - 62.6 °F 94% 30.02 in 10.0 mi ENE 9.2 mph - N/A   Overcast
3:55 AM 64.4 °F - 62.6 °F 94% 30.00 in 10.0 mi ENE 9.2 mph - N/A   Overcast
4:15 AM 64.4 °F - 62.6 °F 94% 30.00 in 10.0 mi NE 9.2 mph - N/A   Overcast
4:35 AM 64.4 °F - 62.6 °F 94% 30.00 in 10.0 mi ENE 8.1 mph - N/A   Overcast
4:55 AM 64.4 °F - 60.8 °F 88% 30.00 in 10.0 mi East 9.2 mph - N/A   Overcast
5:15 AM 64.4 °F - 60.8 °F 88% 30.00 in 10.0 mi East 8.1 mph - N/A   Overcast
5:35 AM 64.4 °F - 60.8 °F 88% 30.00 in 10.0 mi East 9.2 mph - N/A   Overcast
5:55 AM 64.4 °F - 62.6 °F 94% 30.01 in 10.0 mi ENE 9.2 mph - N/A   Mostly Cloudy
6:15 AM 64.4 °F - 62.6 °F 94% 30.02 in 10.0 mi ENE 10.4 mph - N/A   Scattered Clouds
6:35 AM 62.6 °F - 62.6 °F 100% 30.03 in 10.0 mi ENE 13.8 mph 18.4 mph 0.01 in   Mostly Cloudy
6:55 AM 62.6 °F - 62.6 °F 100% 30.04 in 10.0 mi ENE 11.5 mph - 0.01 in   Overcast
7:15 AM 62.6 °F - 60.8 °F 94% 30.04 in 10.0 mi ENE 9.2 mph - N/A   Overcast
7:35 AM 62.6 °F - 60.8 °F 94% 30.04 in 10.0 mi ENE 10.4 mph - N/A   Overcast
7:55 AM 62.6 °F - 60.8 °F 94% 30.03 in 10.0 mi East 9.2 mph - N/A   Overcast
8:15 AM 64.4 °F - 60.8 °F 88% 30.02 in 10.0 mi East 11.5 mph - N/A   Overcast
8:35 AM 66.2 °F - 60.8 °F 83% 30.03 in 10.0 mi ESE 10.4 mph 16.1 mph N/A   Overcast
8:55 AM 66.2 °F - 60.8 °F 83% 30.02 in 10.0 mi ESE 9.2 mph - N/A   Overcast
9:15 AM 68.0 °F - 60.8 °F 78% 30.02 in 10.0 mi SE 8.1 mph - N/A   Scattered Clouds
9:35 AM 68.0 °F - 60.8 °F 78% 30.01 in 10.0 mi ESE 9.2 mph - N/A   Clear
9:55 AM 68.0 °F - 60.8 °F 78% 30.01 in 10.0 mi ESE 10.4 mph - N/A   Clear
10:15 AM 69.8 °F - 62.6 °F 78% 30.02 in 10.0 mi ESE 8.1 mph - N/A   Clear
10:35 AM 69.8 °F - 62.6 °F 78% 30.01 in 10.0 mi ESE 10.4 mph - N/A   Scattered Clouds
10:55 AM 73.4 °F - 62.6 °F 69% 30.01 in 10.0 mi ESE 11.5 mph - N/A   Partly Cloudy
11:15 AM 73.4 °F - 62.6 °F 69% 30.02 in 10.0 mi ESE 11.5 mph - N/A   Mostly Cloudy
11:35 AM 73.4 °F - 62.6 °F 69% 30.01 in 10.0 mi ESE 10.4 mph 16.1 mph N/A   Scattered Clouds
11:55 AM 73.4 °F - 62.6 °F 69% 30.01 in 10.0 mi ESE 13.8 mph - N/A   Mostly Cloudy
12:15 PM 75.2 °F - 62.6 °F 65% 30.01 in 10.0 mi ESE 13.8 mph 17.3 mph N/A   Mostly Cloudy
12:35 PM 77.0 °F - 62.6 °F 61% 30.01 in 10.0 mi East 12.7 mph 19.6 mph N/A   Overcast
12:55 PM 77.0 °F - 62.6 °F 61% 30.00 in 10.0 mi East 11.5 mph 18.4 mph N/A   Overcast
1:15 PM 78.8 °F - 64.4 °F 61% 30.00 in 10.0 mi East 12.7 mph 18.4 mph N/A   Overcast
1:35 PM 80.6 °F 82.3 °F 64.4 °F 58% 30.00 in 10.0 mi East 15.0 mph 20.7 mph N/A   Scattered Clouds
1:55 PM 82.4 °F 83.9 °F 64.4 °F 54% 29.99 in 10.0 mi East 15.0 mph 21.9 mph N/A   Partly Cloudy
2:15 PM 82.4 °F 84.6 °F 66.2 °F 58% 29.99 in 10.0 mi SE 12.7 mph 18.4 mph N/A   Mostly Cloudy
2:35 PM 82.4 °F 84.6 °F 66.2 °F 58% 29.98 in 10.0 mi East 16.1 mph 23.0 mph N/A   Mostly Cloudy
2:55 PM 82.4 °F 84.6 °F 66.2 °F 58% 29.97 in 10.0 mi East 17.3 mph 20.7 mph N/A   Scattered Clouds
3:15 PM 82.4 °F 84.6 °F 66.2 °F 58% 29.96 in 10.0 mi East 15.0 mph 21.9 mph N/A   Partly Cloudy
3:35 PM 82.4 °F 84.6 °F 66.2 °F 58% 29.95 in 10.0 mi East 17.3 mph 24.2 mph N/A   Scattered Clouds
3:55 PM 82.4 °F 84.6 °F 66.2 °F 58% 29.94 in 10.0 mi East 19.6 mph 24.2 mph N/A   Mostly Cloudy
4:15 PM 84.2 °F 86.6 °F 66.2 °F 55% 29.94 in 10.0 mi ESE 12.7 mph 18.4 mph N/A   Mostly Cloudy
4:35 PM 82.4 °F 84.6 °F 66.2 °F 58% 29.93 in 10.0 mi East 16.1 mph 23.0 mph N/A   Mostly Cloudy
4:55 PM 82.4 °F 85.4 °F 68.0 °F 62% 29.94 in 10.0 mi East 17.3 mph 27.6 mph N/A   Mostly Cloudy
5:15 PM 78.8 °F - 66.2 °F 65% 29.93 in 10.0 mi East 19.6 mph 27.6 mph N/A   Overcast
5:35 PM 80.6 °F 82.7 °F 66.2 °F 61% 29.93 in 10.0 mi East 15.0 mph 26.5 mph N/A   Mostly Cloudy
5:55 PM 80.6 °F 83.2 °F 68.0 °F 65% 29.93 in 10.0 mi ENE 18.4 mph 24.2 mph N/A   Mostly Cloudy
6:15 PM 77.0 °F - 66.2 °F 69% 29.93 in 10.0 mi East 20.7 mph 27.6 mph N/A   Mostly Cloudy
6:35 PM 77.0 °F - 66.2 °F 69% 29.93 in 10.0 mi ENE 19.6 mph 28.8 mph N/A   Scattered Clouds
6:55 PM 77.0 °F - 66.2 °F 69% 29.93 in 10.0 mi East 20.7 mph 28.8 mph N/A   Clear
7:15 PM 75.2 °F - 66.2 °F 73% 29.93 in 10.0 mi East 17.3 mph 26.5 mph N/A   Clear
7:35 PM 73.4 °F - 64.4 °F 73% 29.94 in 10.0 mi East 18.4 mph 25.3 mph N/A   Clear
7:55 PM 73.4 °F - 64.4 °F 73% 29.95 in 10.0 mi East 16.1 mph 23.0 mph N/A   Partly Cloudy
8:15 PM 71.6 °F - 64.4 °F 78% 29.96 in 10.0 mi ENE 13.8 mph 20.7 mph N/A   Partly Cloudy
8:35 PM 71.6 °F - 64.4 °F 78% 29.96 in 10.0 mi East 13.8 mph 19.6 mph N/A   Partly Cloudy
8:55 PM 71.6 °F - 62.6 °F 73% 29.96 in 10.0 mi East 12.7 mph - N/A   Clear
9:15 PM 69.8 °F - 62.6 °F 78% 29.96 in 10.0 mi East 12.7 mph 17.3 mph N/A   Mostly Cloudy
9:35 PM 69.8 °F - 62.6 °F 78% 29.96 in 10.0 mi East 13.8 mph - N/A   Overcast
9:55 PM 69.8 °F - 62.6 °F 78% 29.98 in 10.0 mi East 12.7 mph - N/A   Mostly Cloudy
10:15 PM 69.8 °F - 62.6 °F 78% 29.99 in 10.0 mi East 13.8 mph - N/A   Overcast
10:35 PM 69.8 °F - 62.6 °F 78% 30.00 in 10.0 mi East 9.2 mph - N/A   Overcast
10:55 PM 69.8 °F - 60.8 °F 73% 29.99 in 10.0 mi East 12.7 mph 17.3 mph N/A   Overcast
11:15 PM 69.8 °F - 60.8 °F 73% 29.99 in 10.0 mi East 12.7 mph 18.4 mph N/A   Overcast
11:35 PM 69.8 °F - 60.8 °F 73% 29.99 in 10.0 mi ESE 11.5 mph - N/A   Overcast
11:55 PM 69.8 °F - 60.8 °F 73% 29.99 in 10.0 mi East 11.5 mph - N/A   Mostly Cloudy